Location: Atbuku
(36.4936°N, 30.4362°E)
Time: 22:54:31
(UTC+00:00)

IRS-P3 - Visible Passes

Search period start: 14 March 2026 00:00
Search period end: 24 March 2026 00:00
Orbit: 811 x 815 km, 99.0° (Epoch: 14 March)

Date Brightness Start Highest point End Pass type
(mag) Time Alt. Az. Time Alt. Az. Time Alt. Az.
14 Mar 6.4 17:11:51 10° SSW 17:16:16 26° W 17:20:43 10° NW visible
15 Mar 5.5 16:48:14 10° S 16:53:17 44° W 16:58:21 10° NNW visible
16 Mar 4.5 16:25:02 10° S 16:30:21 74° WSW 16:35:41 10° NNW visible
17 Mar 7.2 17:45:26 10° WSW 17:47:47 13° W 17:50:10 10° WNW visible
18 Mar 6.7 17:20:37 10° SW 17:24:42 22° W 17:28:47 10° NW visible
19 Mar 5.8 16:56:47 10° SSW 17:01:40 37° W 17:06:35 10° NNW visible
20 Mar 7.9 03:39:32 10° E 03:39:51 10° E 03:40:09 10° E visible
20 Mar 4.8 16:33:27 10° S 16:38:43 62° WSW 16:44:00 10° NNW visible
21 Mar 7.4 17:55:16 10° WSW 17:56:15 10° W 17:57:14 10° W visible
22 Mar 6.9 17:29:28 10° SW 17:33:07 19° W 17:36:47 10° NW visible
23 Mar 6.1 17:05:24 10° SSW 17:10:04 31° W 17:14:46 10° NW visible
